Zurück zum Katalog

STARLINK-36318

AktivKommunikationVLEO
NORAD 68048·PAYLOAD·🇺🇸 United States

Gestartet Mar 2, 2026 von Vandenberg Space Force Base

Loading…

Nächste Überflüge (nächste 24 Stunden)

TLE

AktuellSource: CelesTrak SupGP

Epoche: Sep 15, 2026, 03:38 UTC

1 68048C 26041J   26258.15187500 -.00046775  00000+0 -13819-2 0  2581
2 68048  53.1584 245.0633 0001333  89.1796 253.1408 15.34414751    16

Verfolge STARLINK-36318 in Echtzeit mit AllMySat

Download on the App Store